Regional Weather Roundup
Issued by NWS

Home | Current Version | Previous Version | Text Only | Print | Product List | Glossary On
Versions: 1 2 3 4 5 6 7 8 9 10 11 12 13 14 15 16 17 18 19 20 21 22 23 24 25 26 27 28 29 30 31 32 33 34 35 36 37 38 39 40 41 42 43 44 45 46 47 48 49 50
000
ASUS43 KLOT 080209
RWRIL

ILLINOIS REGIONAL WEATHER ROUNDUP
NATIONAL WEATHER SERVICE CHICAGO/ROMEOVILLE IL
900 PM CDT FRI MAY 07 2021

NOTE: "FAIR" INDICATES FEW OR NO CLOUDS BELOW 12,000 FEET WITH NO
SIGNIFICANT WEATHER AND/OR OBSTRUCTIONS TO VISIBILITY.

* THESE STATIONS ARE NOT UNDER NWS QUALITY CONTROL. THEY ALSO MAY NOT
  REPORT WEATHER SUCH AS PRECIPITATION OR FOG.

ILZ001-002-007-009-015-016-024-080300-
NORTHWEST ILLINOIS

CITY           SKY/WX    TMP DP  RH WIND       PRES   REMARKS
MOLINE         CLEAR     54  28  36 N8        30.04R
STERLING*      CLEAR     47  30  51 NE6       30.07R
SAVANNA*       CLEAR     46  28  49 NE5       30.06R
$$

ILZ003-004-008-010-011-017-018-080300-
NORTH CENTRAL ILLINOIS

CITY           SKY/WX    TMP DP  RH WIND       PRES   REMARKS
ROCKFORD       PTCLDY    48  25  40 N8        30.08R
FREEPORT*      PTCLDY    44  28  54 NE6       30.08S
ROCHELLE*      CLEAR     47  27  46 N9        30.07R
DE KALB*       CLEAR     44  26  50 N7        30.07R
PERU*          CLEAR     51  29  42 NE10      30.06R
$$

ILZ005-006-012>014-019>023-080300-
NORTHEAST ILLINOIS

CITY           SKY/WX    TMP DP  RH WIND       PRES   REMARKS
CHICAGO-OHARE  PTCLDY    43  35  73 NE9       30.06R
CHICAGO-MIDWAY PTCLDY    45  34  65 NE8       30.07R
AURORA         CLEAR     44  25  47 N6        30.06R
JOLIET*        CLEAR     46  36  66 NE10      30.08R
WAUKEGAN       MOCLDY    41  35  79 NE5       30.07R
DUPAGE AIRPORT CLEAR     43  35  73 E7        30.06R
KANKAKEE*      CLEAR     44  36  73 NE10      30.07R
WHEELING       MOCLDY    44  37  76 N3        30.09R
MORRIS*        CLEAR     48  26  42 N3        30.05R
ROMEOVILLE*    CLEAR     43  36  76 NE8       30.07R
LANSING*       PTCLDY    42  34  72 NE8       30.08R
NORTHERLY ISL*   N/A     42  35  76 N9          N/A
$$

LMZ740>746-080300-
SOUTHERN LAKE MICHIGAN

STATION/POSITION SKY/WX   TEMP    WIND        PRES    VSBY  WAVE
                          AIR SEA DIR/SP/G                  HT/PER
                          (F)     (DEG/KT/KT) (MB)    (MI)  (FT/S)
WINTHROP HARBOR            43 48  360/ 10/ 14   N/A           2/ 4
WILMETTE HARBOR               49   10/ 10/ 14 1018.6          3/ 1
HARRISON CRIB              43      10/ 13/ 13   N/A
NORTHERLY ISL              42      20/  8/ 14   N/A
CALUMET HARBOR                    350/ 11/ 15 1017.7
BURNS HARBOR               44      20/ 12/ 14 1017.9R
MICHIGAN CITY              43      20/ 20/ 22 1018.8R
ST. JOSEPH                 44 49  350/ 17/ 23 1018.5R         4/ 5
$$

ILZ025>027-034>036-040-047-049-050-058-095>099-080300-
WEST-CENTRAL ILLINOIS

CITY           SKY/WX    TMP DP  RH WIND       PRES   REMARKS
QUINCY         CLEAR     53  31  42 NE8       30.01R
GALESBURG*     CLEAR     46  28  51 NE8       30.05R
MACOMB*        CLEAR     52  31  46 N7        30.05R
JACKSONVILLE*  CLEAR     56  30  38 CALM      30.01R
PITTSFIELD*    CLEAR     57  32  39 N3        30.02R
$$

ILZ028>032-037-038-041>044-048-051>054-059>061-080300-
CENTRAL ILLINOIS

CITY           SKY/WX    TMP DP  RH WIND       PRES   REMARKS
PONTIAC        CLEAR     49  29  44 N10       30.06R
BLOOMINGTON    CLEAR     49  31  49 NE12      30.04R
DECATUR        CLEAR     54  32  43 N9        30.01R
PEORIA         CLEAR     55  29  36 NE6       30.03R
LACON*         CLEAR     51  30  45 NE5       30.04R
LINCOLN*       CLEAR     54  28  36 N7        30.02R
SPRINGFIELD    CLEAR     54  32  43 N7        30.01R
TAYLORVILLE    CLEAR     54  32  43 NE10      30.01R
$$

ILZ033-039-045-046-055>057-062-063-080300-
EAST-CENTRAL ILLINOIS

CITY           SKY/WX    TMP DP  RH WIND       PRES   REMARKS
CHAMPAIGN      CLEAR     51  36  56 NE13      30.03R
DANVILLE*      CLEAR     47  35  61 NE7       30.05R
RANTOUL*       CLEAR     49  35  58 NE9       30.03R
MATTOON        CLEAR     53  34  48 N9        29.99R
PARIS*         CLEAR     50  37  62 NE9       30.03R
$$

ILZ079-100>102-080300-
SOUTHWEST ILLINOIS

CITY           SKY/WX    TMP DP  RH WIND       PRES   REMARKS
ALTON          MOCLDY    59  41  51 N8        29.99R
BELLEVILLE     PTCLDY    62  45  53 N6        29.97R
CAHOKIA*       CLOUDY    66  42  41 NW6       29.98R
SPARTA*        MOCLDY    63  45  51 CALM      29.99S
$$

ILZ064>066-069>071-074>076-080>082-084>086-088>090-092>094-080300-
SOUTH-CENTRAL ILLINOIS

CITY           SKY/WX    TMP DP  RH WIND       PRES   REMARKS
CARBONDALE     PTCLDY    59  45  59 SW8       29.98S
CAIRO*         CLEAR     62  44  53 SW6       30.01R
EFFINGHAM*     CLEAR     58  35  43 N3        30.01R
MARION         MOCLDY    57  45  65 SW6       29.99S
MT. VERNON     MOCLDY    61  45  55 N5        29.99R
CENTRALIA*     PTCLDY    60  47  61 CALM      29.98R
SALEM*         PTCLDY    59  42  53 N6        29.99R
$$

ILZ067-068-072-073-078-083-087-091-080300-
SOUTHEAST ILLINOIS

CITY           SKY/WX    TMP DP  RH WIND       PRES   REMARKS
LAWRENCEVILLE  MOCLDY    59  40  49 N9        29.98R
FLORA*         PTCLDY    61  39  44 N7        29.99R
FAIRFIELD*     PTCLDY    63  40  42 CALM      29.97R
HARRISBURG*    MOCLDY    60  39  45 W7        29.99R
ROBINSON*      CLEAR     56  36  46 N8        29.99R
CARMI*         PTCLDY    61  46  59 CALM      29.97R
$$

ABBREVIATIONS USED IN REMARKS
   TC - TEMPERATURE IN CELSIUS
  WCI - WIND CHILL INDEX
   HX - HEAT INDEX
  VSB - VISIBILITY
$$




USA.gov is the U.S. government's official web portal to all federal, state and local government web resources and services.